When you browse on this site, cookies collect data to enhance your experience and personalize the content and advertising you see.
Visit our Privacy Policy to learn more. By continuing to use the site, you agree to this use of cookies and data.
  • In Hungary
  • List of Countries
  • For 7 days
  • Water Temperature
  • Satellite Maps
  • Weather Map
  • News
  • Weather Widgets
  • user-avatar
    Login

    Hourly Weather Jacksonville

    Today, 20 February, Wednesday

    Time Temperature Precipitation Wind Pressure Humidity
    00:00 +18°C° 0.2 mm 3 mps 766 mmHg 96%
    01:00 +18°C° 0 mm 4 mps 766 mmHg 94%
    02:00 +18°C° 0 mm 3 mps 766 mmHg 95%
    03:00 +18°C° 0 mm 2 mps 765 mmHg 95%
    04:00 +18°C° 0 mm 2 mps 765 mmHg 95%
    05:00 +19°C° 0 mm 1 mps 765 mmHg 96%
    06:00 +19°C° 0 mm 1 mps 765 mmHg 97%
    07:00 +19°C° 0 mm 1 mps 764 mmHg 95%
    08:00 +21°C° 0 mm 1 mps 765 mmHg 91%
    09:00 +21°C° 0 mm 2 mps 765 mmHg 87%
    10:00 +24°C° 0 mm 2 mps 765 mmHg 83%
    11:00 +25°C° 0.1 mm 2 mps 765 mmHg 81%
    12:00 +26°C° 0.1 mm 2 mps 764 mmHg 79%
    13:00 +26°C° 0.1 mm 2 mps 764 mmHg 77%
    14:00 +26°C° 0.4 mm 1 mps 764 mmHg 78%
    15:00 +26°C° 0.4 mm 1 mps 764 mmHg 79%
    16:00 +26°C° 0.4 mm 1 mps 763 mmHg 80%
    17:00 +25°C° 0.6 mm 2 mps 763 mmHg 82%
    18:00 +25°C° 0.6 mm 2 mps 763 mmHg 84%
    19:00 +24°C° 0.6 mm 2 mps 763 mmHg 86%
    20:00 +24°C° 0.8 mm 2 mps 764 mmHg 87%
    21:00 +24°C° 0.8 mm 2 mps 764 mmHg 88%
    22:00 +24°C° 0.8 mm 2 mps 764 mmHg 90%
    23:00 +24°C° 0.2 mm 2 mps 764 mmHg 90%

    Tomorrow, 21 February, Thursday

    Time Temperature Precipitation Wind Pressure Humidity
    00:00 +23°C° 0.2 mm 2 mps 764 mmHg 91%
    01:00 +23°C° 0.2 mm 2 mps 764 mmHg 92%
    02:00 +23°C° 0 mm 2 mps 764 mmHg 93%
    03:00 +23°C° 0 mm 2 mps 764 mmHg 94%
    04:00 +21°C° 0 mm 2 mps 764 mmHg 95%
    05:00 +21°C° 0 mm 2 mps 764 mmHg 95%
    06:00 +21°C° 0 mm 2 mps 764 mmHg 95%
    07:00 +20°C° 0 mm 2 mps 764 mmHg 95%
    08:00 +23°C° 0 mm 2 mps 765 mmHg 88%
    09:00 +25°C° 0 mm 2 mps 765 mmHg 80%
    10:00 +26°C° 0 mm 2 mps 766 mmHg 73%
    11:00 +28°C° 0 mm 2 mps 765 mmHg 64%
    12:00 +29°C° 0 mm 2 mps 765 mmHg 54%
    13:00 +31°C° 0 mm 2 mps 765 mmHg 45%
    14:00 +31°C° 0 mm 2 mps 764 mmHg 45%
    15:00 +31°C° 0 mm 2 mps 764 mmHg 44%
    16:00 +31°C° 0 mm 2 mps 763 mmHg 44%
    17:00 +30°C° 0 mm 2 mps 764 mmHg 53%
    18:00 +28°C° 0 mm 2 mps 764 mmHg 61%
    19:00 +26°C° 0 mm 2 mps 764 mmHg 69%
    20:00 +25°C° 0 mm 2 mps 765 mmHg 74%
    21:00 +25°C° 0 mm 2 mps 765 mmHg 78%
    22:00 +24°C° 0 mm 2 mps 765 mmHg 83%
    23:00 +24°C° 0 mm 1 mps 765 mmHg 85%

    Day after tomorrow, 22 February, Friday

    Time Temperature Precipitation Wind Pressure Humidity
    00:00 +23°C° 0 mm 1 mps 765 mmHg 87%
    01:00 +23°C° 0 mm 1 mps 766 mmHg 90%
    02:00 +23°C° 0 mm 1 mps 765 mmHg 91%
    03:00 +22°C° 0 mm 1 mps 765 mmHg 92%
    04:00 +22°C° 0 mm 1 mps 765 mmHg 94%
    05:00 +22°C° 0 mm 1 mps 765 mmHg 94%
    06:00 +22°C° 0 mm 1 mps 766 mmHg 95%
    07:00 +21°C° 0 mm 1 mps 766 mmHg 95%
    08:00 +23°C° 0 mm 1 mps 766 mmHg 84%
    09:00 +26°C° 0 mm 1 mps 767 mmHg 74%
    10:00 +28°C° 0 mm 1 mps 767 mmHg 63%
    11:00 +29°C° 0 mm 2 mps 767 mmHg 55%
    12:00 +31°C° 0 mm 2 mps 767 mmHg 47%
    13:00 +32°C° 0 mm 2 mps 766 mmHg 39%
    14:00 +32°C° 0 mm 2 mps 766 mmHg 38%
    15:00 +32°C° 0 mm 2 mps 765 mmHg 38%
    16:00 +32°C° 0 mm 2 mps 765 mmHg 38%
    17:00 +30°C° 0 mm 3 mps 765 mmHg 47%
    18:00 +28°C° 0 mm 3 mps 765 mmHg 55%
    19:00 +26°C° 0 mm 3 mps 766 mmHg 64%
    20:00 +25°C° 0 mm 3 mps 766 mmHg 69%
    21:00 +25°C° 0 mm 3 mps 766 mmHg 74%
    22:00 +24°C° 0 mm 3 mps 767 mmHg 80%
    23:00 +23°C° 0 mm 2 mps 766 mmHg 82%

    23 February, Saturday

    Time Temperature Precipitation Wind Pressure Humidity
    00:00 +23°C° 0 mm 2 mps 766 mmHg 84%
    01:00 +23°C° 0 mm 1 mps 766 mmHg 86%
    02:00 +22°C° 0 mm 1 mps 766 mmHg 88%
    03:00 +22°C° 0 mm 1 mps 765 mmHg 89%
    04:00 +22°C° 0 mm 1 mps 765 mmHg 91%
    05:00 +22°C° 0 mm 1 mps 765 mmHg 92%
    06:00 +21°C° 0 mm 1 mps 766 mmHg 93%
    07:00 +21°C° 0 mm 1 mps 766 mmHg 94%
    08:00 +23°C° 0 mm 1 mps 766 mmHg 84%
    09:00 +25°C° 0 mm 1 mps 766 mmHg 75%
    10:00 +28°C° 0 mm 2 mps 767 mmHg 66%
    11:00 +29°C° 0 mm 2 mps 766 mmHg 59%
    12:00 +31°C° 0 mm 2 mps 765 mmHg 52%
    13:00 +33°C° 0 mm 3 mps 765 mmHg 46%
    14:00 +31°C° 0.2 mm 3 mps 764 mmHg 51%
    15:00 +30°C° 0.2 mm 3 mps 763 mmHg 56%
    16:00 +29°C° 0.2 mm 3 mps 763 mmHg 61%
    17:00 +28°C° 0.6 mm 3 mps 763 mmHg 66%
    18:00 +27°C° 0.6 mm 3 mps 763 mmHg 71%
    19:00 +26°C° 0.6 mm 2 mps 763 mmHg 77%
    20:00 +26°C° 0.3 mm 2 mps 763 mmHg 79%
    21:00 +25°C° 0.3 mm 2 mps 763 mmHg 81%
    22:00 +25°C° 0.3 mm 2 mps 764 mmHg 83%
    23:00 +24°C° 0 mm 2 mps 763 mmHg 84%

    24 February, Sunday

    Time Temperature Precipitation Wind Pressure Humidity
    00:00 +24°C° 0 mm 2 mps 763 mmHg 86%
    01:00 +23°C° 0 mm 2 mps 763 mmHg 87%
    02:00 +22°C° 0 mm 3 mps 763 mmHg 89%
    03:00 +22°C° 0 mm 3 mps 762 mmHg 90%
    04:00 +21°C° 0 mm 3 mps 762 mmHg 92%
    05:00 +21°C° 0 mm 3 mps 762 mmHg 93%
    06:00 +21°C° 0 mm 3 mps 762 mmHg 94%
    07:00 +21°C° 0 mm 3 mps 763 mmHg 95%
    08:00 +24°C° 0 mm 3 mps 763 mmHg 86%
    09:00 +25°C° 0 mm 4 mps 763 mmHg 78%
    10:00 +27°C° 0 mm 4 mps 763 mmHg 69%
    11:00 +28°C° 0 mm 5 mps 763 mmHg 61%
    12:00 +30°C° 0 mm 5 mps 762 mmHg 53%
    13:00 +33°C° 0 mm 5 mps 762 mmHg 45%
    14:00 +30°C° 1.5 mm 5 mps 762 mmHg 52%
    15:00 +29°C° 1.5 mm 5 mps 761 mmHg 59%
    16:00 +28°C° 1.5 mm 5 mps 761 mmHg 67%
    17:00 +26°C° 1.3 mm 4 mps 762 mmHg 66%
    18:00 +25°C° 1.3 mm 4 mps 762 mmHg 65%
    19:00 +24°C° 1.3 mm 3 mps 763 mmHg 65%
    20:00 +22°C° 0 mm 3 mps 763 mmHg 59%
    21:00 +21°C° 0 mm 3 mps 764 mmHg 54%
    22:00 +20°C° 0 mm 3 mps 765 mmHg 49%
    23:00 +19°C° 0 mm 3 mps 765 mmHg 47%

    25 February, Monday

    Time Temperature Precipitation Wind Pressure Humidity
    00:00 +19°C° 0 mm 4 mps 765 mmHg 44%
    01:00 +18°C° 0 mm 4 mps 765 mmHg 42%
    02:00 +17°C° 0 mm 4 mps 765 mmHg 42%
    03:00 +15°C° 0 mm 4 mps 766 mmHg 41%
    04:00 +14°C° 0 mm 4 mps 766 mmHg 41%
    05:00 +13°C° 0 mm 4 mps 767 mmHg 41%
    06:00 +12°C° 0 mm 4 mps 767 mmHg 41%
    07:00 +11°C° 0 mm 4 mps 768 mmHg 41%
    08:00 +12°C° 0 mm 4 mps 769 mmHg 37%
    09:00 +13°C° 0 mm 3 mps 769 mmHg 34%
    10:00 +14°C° 0 mm 3 mps 770 mmHg 30%
    11:00 +17°C° 0 mm 3 mps 770 mmHg 28%
    12:00 +18°C° 0 mm 3 mps 770 mmHg 25%
    13:00 +20°C° 0 mm 3 mps 770 mmHg 23%
    14:00 +20°C° 0 mm 3 mps 769 mmHg 25%
    15:00 +19°C° 0 mm 4 mps 769 mmHg 27%
    16:00 +19°C° 0 mm 4 mps 769 mmHg 29%
    17:00 +18°C° 0 mm 3 mps 770 mmHg 36%
    18:00 +16°C° 0 mm 3 mps 770 mmHg 44%
    19:00 +14°C° 0 mm 3 mps 771 mmHg 52%
    20:00 +14°C° 0 mm 3 mps 771 mmHg 51%
    21:00 +14°C° 0 mm 3 mps 772 mmHg 50%
    22:00 +13°C° 0 mm 3 mps 772 mmHg 49%
    23:00 +14°C° 0 mm 4 mps 772 mmHg 50%
    Show more